Home   Weather   Saipan   Past weeks
Flag for Northern Mariana Islands

Past Weather in Saipan, Northern Mariana Islands — Yesterday and Last 2 Weeks

Now
82 °F

Scattered clouds.


Feels Like: 90 °F
Forecast: 80 / 75 °F
Wind: 12 mph from East

Location: Saipan International Airport

Current Time: Oct 20, 2019 at 9:17:07 am

Latest Report: Oct 20, 2019 at 7:54 am


Visibility: 10 mi

Pressure: 29.97 "Hg

Humidity: 85%

Dew Point: 77 °F

Location of SaipanLocation

Past Weather in Saipan — Graph

°F

Saipan Temperature Yesterday

Maximum temperature yesterday: 82 °F (at 12:54 pm)
Minimum temperature yesterday: 75 °F (at 8:12 am)
Average temperature yesterday: 79 °F

High & Low Weather Summary for the Past Weeks

 TemperatureHumidityPressure
High88 °F (Oct 13, 11:54 am)100% (Oct 7, 5:54 am)30.02 "Hg (Oct 7, 5:54 am)
Low75 °F (Oct 9, 10:54 am)69% (Oct 13, 10:54 am)29.43 "Hg (Oct 7, 4:37 pm)
Average81 °F88%29.87 "Hg
* Reported Oct 5 7:54 am — Oct 20 7:54 am, Saipan. Weather by CustomWeather, © 2019

Note: Actual official high and low records may vary slightly from our data, if they occured in-between our weather recording intervals... More about our weather records

Advertising

Saipan Weather History for the Previous 24 Hours

Scroll right to see more
 ConditionsComfort  
Time TempWeatherWind HumidityBarometerVisibility
7:54 am
Sun, Oct 20
82 °FScattered clouds.12 mph85%29.97 "Hg10 mi
6:54 am80 °FScattered clouds.10 mph90%29.95 "Hg10 mi
5:54 am79 °FPassing clouds.12 mph90%29.94 "Hg10 mi
4:54 am79 °FPassing clouds.13 mph90%29.92 "Hg10 mi
3:54 am79 °FPassing clouds.8 mph90%29.92 "Hg10 mi
2:54 am79 °FPassing clouds.12 mph90%29.91 "Hg10 mi
1:54 am79 °FPassing clouds.10 mph94%29.92 "Hg10 mi
12:54 am79 °FPassing clouds.12 mph90%29.94 "Hg10 mi
12:01 am79 °FPassing clouds.12 mph90%29.89 "Hg10 mi
11:24 pm
Sat, Oct 19
79 °FPartly cloudy.12 mph90%29.91 "Hg10 mi
10:54 pm79 °FPassing clouds.9 mph90%29.97 "Hg10 mi
9:54 pm78 °FClear.6 mph93%29.98 "Hg10 mi
8:54 pm78 °FPassing clouds.6 mph93%29.98 "Hg10 mi
7:54 pm79 °FClear.6 mph90%29.97 "Hg10 mi
6:54 pm79 °FClear.7 mph90%29.96 "Hg10 mi
5:54 pm79 °FClear.6 mph90%29.94 "Hg10 mi
5:03 pm81 °FScattered clouds.10 mph85%29.87 "Hg10 mi
4:54 pm81 °FPartly sunny.13 mph85%29.93 "Hg10 mi
3:54 pm81 °FScattered clouds.13 mph85%29.92 "Hg10 mi
2:54 pm81 °FScattered clouds.13 mph82%29.92 "Hg10 mi
1:54 pm81 °FLight rain. Scattered clouds.13 mph82%29.91 "Hg10 mi
12:54 pm82 °FScattered clouds.17 mph85%29.93 "Hg10 mi
11:54 am81 °FBroken clouds.15 mph91%29.95 "Hg10 mi
10:54 am78 °FBroken clouds.12 mph93%29.98 "Hg10 mi
9:54 am77 °FRain. Broken clouds.15 mph94%30.02 "Hg7 mi
Weather by CustomWeather, © 2019

See weather overview